IGO1186 VCBI-VABB

Flight info

Callsign IGO1186
Flight time 2h 11m
Altitude 36000
Route ATETA1D ATETA T4 TTR W42 BIA W56 AGELA MOLGO2A
Aircraft A320/M-SDE3FGHIRWY/LB1

Departure

Time 2026-05-07 05:34
Airport Bandaranaike International Colombo Airport (VCBI)

Arrival

Time 2026-05-07 07:46
Airport Chhatrapati Shivaji Maharaj International Airport (VABB)
Time Latitude Longitude Altitude Speed Heading
2026-05-07 05:08 7.17533 79.88509 25 ft 0 kts 38°
2026-05-07 05:25 7.17522 79.88500 25 ft 2 kts 37°
2026-05-07 05:26 7.17510 79.88491 26 ft 2 kts 37°
2026-05-07 05:26 7.17498 79.88482 27 ft 2 kts 37°
2026-05-07 05:26 7.17486 79.88473 28 ft 2 kts 24°
2026-05-07 05:26 7.17472 79.88469 29 ft 2 kts 346°
2026-05-07 05:27 7.17458 79.88475 29 ft 2 kts 312°
2026-05-07 05:27 7.17456 79.88477 29 ft 0 kts 308°
2026-05-07 05:29 7.17463 79.88468 30 ft 2 kts 308°
2026-05-07 05:29 7.17477 79.88451 25 ft 4 kts 308°
2026-05-07 05:29 7.17497 79.88425 25 ft 6 kts 308°
2026-05-07 05:30 7.17524 79.88390 25 ft 7 kts 308°
2026-05-07 05:30 7.17557 79.88346 27 ft 9 kts 307°
2026-05-07 05:30 7.17597 79.88293 26 ft 10 kts 307°
2026-05-07 05:30 7.17617 79.88227 25 ft 11 kts 248°
2026-05-07 05:31 7.17555 79.88173 29 ft 13 kts 217°
2026-05-07 05:31 7.17478 79.88116 27 ft 15 kts 217°
2026-05-07 05:31 7.17393 79.88050 26 ft 16 kts 217°
2026-05-07 05:31 7.17297 79.87975 26 ft 18 kts 218°
2026-05-07 05:32 7.17191 79.87896 25 ft 20 kts 217°
2026-05-07 05:32 7.17077 79.87809 25 ft 21 kts 217°
2026-05-07 05:32 7.16957 79.87717 25 ft 22 kts 217°
2026-05-07 05:32 7.16847 79.87629 27 ft 17 kts 230°
2026-05-07 05:33 7.16884 79.87527 27 ft 16 kts 308°
2026-05-07 05:33 7.16933 79.87482 28 ft 8 kts 352°
2026-05-07 05:33 7.16985 79.87512 28 ft 12 kts 37°
2026-05-07 05:33 7.17170 79.87652 27 ft 66 kts 37°
2026-05-07 05:34 7.17702 79.88060 29 ft 124 kts 37°
2026-05-07 05:34 7.18513 79.88679 29 ft 167 kts 37°
2026-05-07 05:34 7.19434 79.89403 529 ft 169 kts 37°
2026-05-07 05:34 7.20415 79.90021 1032 ft 167 kts
2026-05-07 05:35 7.21586 79.89991 1400 ft 178 kts 348°
2026-05-07 05:35 7.22867 79.89708 1618 ft 200 kts 345°
2026-05-07 05:35 7.24288 79.89362 1815 ft 220 kts 345°
2026-05-07 05:35 7.25850 79.89001 2048 ft 243 kts 347°
2026-05-07 05:36 7.27581 79.88639 2449 ft 262 kts 349°
2026-05-07 05:36 7.29417 79.88375 2903 ft 270 kts 355°
2026-05-07 05:36 7.31302 79.88320 2991 ft 271 kts
2026-05-07 05:36 7.33179 79.88383 3005 ft 270 kts
2026-05-07 05:37 7.35056 79.88472 3006 ft 270 kts
2026-05-07 05:37 7.36933 79.88551 3005 ft 270 kts
2026-05-07 05:37 7.38814 79.88609 3008 ft 270 kts
2026-05-07 05:37 7.40712 79.88643 3443 ft 275 kts
2026-05-07 05:38 7.42623 79.88658 4350 ft 274 kts
2026-05-07 05:38 7.44532 79.88664 5156 ft 276 kts
2026-05-07 05:38 7.46460 79.88665 5950 ft 278 kts 360°
2026-05-07 05:38 7.48362 79.88662 6673 ft 280 kts
2026-05-07 05:39 7.50320 79.88661 7386 ft 283 kts
2026-05-07 05:39 7.52292 79.88664 8083 ft 285 kts
2026-05-07 05:39 7.54295 79.88669 8809 ft 288 kts
2026-05-07 05:39 7.56307 79.88672 9514 ft 291 kts 360°
2026-05-07 05:40 7.58335 79.88672 10149 ft 294 kts 360°
2026-05-07 05:40 7.60453 79.88672 10350 ft 315 kts 360°
2026-05-07 05:40 7.62721 79.88675 10476 ft 335 kts 360°
2026-05-07 05:40 7.65097 79.88682 10843 ft 345 kts 360°
2026-05-07 05:41 7.67511 79.88687 11362 ft 350 kts 359°
2026-05-07 05:41 7.69950 79.88472 11880 ft 353 kts 352°
2026-05-07 05:41 7.72391 79.88120 12414 ft 357 kts 352°
2026-05-07 05:41 7.74813 79.87769 12939 ft 360 kts 351°
2026-05-07 05:42 7.77349 79.87399 13453 ft 363 kts 351°
2026-05-07 05:42 7.79862 79.87031 13913 ft 367 kts 351°
2026-05-07 05:42 7.82397 79.86665 14362 ft 369 kts 352°
2026-05-07 05:42 7.84948 79.86298 14818 ft 372 kts 352°
2026-05-07 05:43 7.87521 79.85930 15273 ft 375 kts 352°
2026-05-07 05:43 7.90113 79.85559 15721 ft 378 kts 352°
2026-05-07 05:43 7.92727 79.85182 16156 ft 381 kts 351°
2026-05-07 05:43 7.95355 79.84799 16599 ft 383 kts 351°
2026-05-07 05:44 7.97969 79.84418 17032 ft 386 kts 351°
2026-05-07 05:44 8.00675 79.84023 17483 ft 389 kts 351°
2026-05-07 05:44 8.03327 79.83637 17920 ft 392 kts 352°
2026-05-07 05:44 8.06032 79.83246 18323 ft 394 kts 352°
2026-05-07 05:45 8.08756 79.82853 18696 ft 397 kts 352°
2026-05-07 05:45 8.11500 79.82457 19080 ft 400 kts 352°
2026-05-07 05:45 8.14267 79.82059 19450 ft 402 kts 352°
2026-05-07 05:45 8.17049 79.81659 19807 ft 405 kts 352°
2026-05-07 05:46 8.19843 79.81256 20183 ft 408 kts 352°
2026-05-07 05:46 8.22661 79.80850 20547 ft 410 kts 352°
2026-05-07 05:46 8.25504 79.80439 20917 ft 413 kts 352°
2026-05-07 05:46 8.28358 79.80024 21272 ft 416 kts 352°
2026-05-07 05:47 8.31232 79.79607 21619 ft 418 kts 352°
2026-05-07 05:47 8.34123 79.79188 21967 ft 421 kts 352°
2026-05-07 05:47 8.37029 79.78768 22310 ft 423 kts 352°
2026-05-07 05:47 8.39952 79.78345 22656 ft 425 kts 352°
2026-05-07 05:48 8.42887 79.77920 22978 ft 428 kts 352°
2026-05-07 05:48 8.45840 79.77489 23305 ft 430 kts 352°
2026-05-07 05:48 8.48808 79.77055 23589 ft 432 kts 352°
2026-05-07 05:48 8.51790 79.76619 23859 ft 434 kts 352°
2026-05-07 05:49 8.54787 79.76180 24139 ft 436 kts 352°
2026-05-07 05:49 8.57789 79.75739 24412 ft 437 kts 352°
2026-05-07 05:49 8.60805 79.75295 24690 ft 439 kts 352°
2026-05-07 05:49 8.63840 79.74848 24966 ft 440 kts 352°
2026-05-07 05:50 8.66878 79.74402 25240 ft 442 kts 352°
2026-05-07 05:50 8.69929 79.73953 25507 ft 444 kts 352°
2026-05-07 05:50 8.72984 79.73504 25771 ft 445 kts 352°
2026-05-07 05:50 8.76058 79.73054 26039 ft 447 kts 352°
2026-05-07 05:51 8.79142 79.72603 26297 ft 449 kts 352°
2026-05-07 05:51 8.82203 79.72154 26551 ft 450 kts 352°
2026-05-07 05:51 8.85344 79.71693 26805 ft 452 kts 352°
2026-05-07 05:51 8.88428 79.71241 27041 ft 454 kts 352°
2026-05-07 05:52 8.91557 79.70783 27298 ft 455 kts 352°
2026-05-07 05:52 8.94697 79.70322 27547 ft 457 kts 352°
2026-05-07 05:52 8.97849 79.69856 27795 ft 459 kts 352°
2026-05-07 05:52 9.01010 79.69388 28045 ft 460 kts 352°
2026-05-07 05:53 9.04185 79.68918 28299 ft 462 kts 352°
2026-05-07 05:53 9.07374 79.68450 28561 ft 464 kts 353°
2026-05-07 05:53 9.10575 79.67981 28819 ft 465 kts 353°
2026-05-07 05:53 9.13775 79.67514 29185 ft 464 kts 353°
2026-05-07 05:54 9.16969 79.67050 29567 ft 463 kts 353°
2026-05-07 05:54 9.20155 79.66585 29946 ft 462 kts 353°
2026-05-07 05:54 9.23333 79.66116 30271 ft 461 kts 353°
2026-05-07 05:54 9.26503 79.65648 30607 ft 460 kts 352°
2026-05-07 05:55 9.29648 79.65091 30943 ft 459 kts 346°
2026-05-07 05:55 9.32662 79.64067 31282 ft 458 kts 336°
2026-05-07 05:55 9.35483 79.62560 31623 ft 457 kts 328°
2026-05-07 05:55 9.38173 79.60852 31971 ft 456 kts 328°
2026-05-07 05:56 9.39954 79.59721 32214 ft 455 kts 328°
2026-05-07 05:56 9.42633 79.58024 32579 ft 453 kts 328°
2026-05-07 05:56 9.45305 79.56335 32941 ft 452 kts 328°
2026-05-07 05:56 9.47966 79.54648 33300 ft 450 kts 328°
2026-05-07 05:57 9.50617 79.52965 33641 ft 449 kts 328°
2026-05-07 05:57 9.53262 79.51288 33956 ft 448 kts 328°
2026-05-07 05:57 9.55900 79.49616 34227 ft 447 kts 328°
2026-05-07 05:57 9.58527 79.47952 34497 ft 446 kts 328°
2026-05-07 05:58 9.61156 79.46285 34753 ft 446 kts 328°
2026-05-07 05:58 9.63783 79.44619 34997 ft 445 kts 328°
2026-05-07 05:58 9.66408 79.42954 35243 ft 445 kts 328°
2026-05-07 05:58 9.69030 79.41289 35483 ft 445 kts 328°
2026-05-07 05:59 9.71649 79.39623 35723 ft 444 kts 327°
2026-05-07 05:59 9.74268 79.37954 35825 ft 446 kts 327°
2026-05-07 05:59 9.76907 79.36273 35859 ft 451 kts 327°
2026-05-07 06:00 9.82273 79.32861 35855 ft 458 kts 327°
2026-05-07 06:00 9.87686 79.29432 35856 ft 459 kts 327°
2026-05-07 06:01 9.93098 79.25995 35854 ft 459 kts 327°
2026-05-07 06:01 9.98507 79.22546 35857 ft 459 kts 327°
2026-05-07 06:02 10.03921 79.19095 35860 ft 459 kts 327°
2026-05-07 06:02 10.09332 79.15652 35863 ft 460 kts 327°
2026-05-07 06:03 10.14753 79.12204 35864 ft 460 kts 327°
2026-05-07 06:03 10.20169 79.08758 35863 ft 460 kts 327°
2026-05-07 06:04 10.25583 79.05302 35865 ft 460 kts 327°
2026-05-07 06:04 10.31005 79.01846 35870 ft 460 kts 327°
2026-05-07 06:05 10.36429 78.98394 35874 ft 460 kts 327°
2026-05-07 06:05 10.41822 78.94951 35867 ft 460 kts 327°
2026-05-07 06:06 10.47275 78.91464 35869 ft 461 kts 327°
2026-05-07 06:06 10.52668 78.88024 35869 ft 461 kts 327°
2026-05-07 06:07 10.58100 78.84559 35873 ft 461 kts 327°
2026-05-07 06:07 10.63563 78.81067 35878 ft 461 kts 327°
2026-05-07 06:08 10.68957 78.77618 35879 ft 461 kts 327°
2026-05-07 06:08 10.74383 78.74138 35878 ft 461 kts 327°
2026-05-07 06:09 10.80104 78.71211 35878 ft 462 kts 338°
2026-05-07 06:09 10.86072 78.68776 35874 ft 462 kts 337°
2026-05-07 06:10 10.92031 78.66326 35872 ft 462 kts 337°
2026-05-07 06:10 10.98000 78.63867 35871 ft 463 kts 337°
2026-05-07 06:11 11.03983 78.61411 35870 ft 463 kts 337°
2026-05-07 06:11 11.09955 78.58950 35872 ft 464 kts 337°
2026-05-07 06:12 11.15938 78.56478 35872 ft 464 kts 337°
2026-05-07 06:12 11.21930 78.54018 35874 ft 464 kts 337°
2026-05-07 06:13 11.27921 78.51551 35880 ft 464 kts 337°
2026-05-07 06:13 11.33915 78.49084 35882 ft 465 kts 337°
2026-05-07 06:14 11.39904 78.46607 35886 ft 464 kts 337°
2026-05-07 06:14 11.45888 78.44127 35889 ft 464 kts 337°
2026-05-07 06:15 11.51877 78.41653 35891 ft 464 kts 337°
2026-05-07 06:15 11.57869 78.39182 35894 ft 464 kts 337°
2026-05-07 06:16 11.63858 78.36712 35896 ft 464 kts 337°
2026-05-07 06:16 11.69845 78.34238 35900 ft 464 kts 337°
2026-05-07 06:17 11.75830 78.31760 35902 ft 464 kts 337°
2026-05-07 06:17 11.81813 78.29280 35904 ft 464 kts 337°
2026-05-07 06:18 11.87787 78.26799 35903 ft 464 kts 336°
2026-05-07 06:18 11.93742 78.24256 35910 ft 464 kts 336°
2026-05-07 06:19 11.99683 78.21684 35912 ft 464 kts 336°
2026-05-07 06:19 12.05629 78.19124 35916 ft 464 kts 336°
2026-05-07 06:20 12.11577 78.16574 35923 ft 463 kts 336°
2026-05-07 06:20 12.17480 78.14046 35932 ft 463 kts 336°
2026-05-07 06:21 12.23462 78.11486 35938 ft 463 kts 336°
2026-05-07 06:21 12.29362 78.08950 35946 ft 463 kts 336°
2026-05-07 06:22 12.35302 78.06397 35953 ft 463 kts 336°
2026-05-07 06:22 12.44212 78.02568 35965 ft 463 kts 336°
2026-05-07 06:23 12.50153 78.00019 35971 ft 463 kts 336°
2026-05-07 06:23 12.56099 77.97461 35982 ft 463 kts 336°
2026-05-07 06:24 12.62041 77.94898 35991 ft 463 kts 336°
2026-05-07 06:24 12.67978 77.92336 35999 ft 464 kts 336°
2026-05-07 06:25 12.73927 77.89776 36009 ft 464 kts 336°
2026-05-07 06:25 12.79887 77.87219 36025 ft 464 kts 336°
2026-05-07 06:26 12.85836 77.84648 36033 ft 464 kts 336°
2026-05-07 06:26 12.91787 77.82061 36040 ft 464 kts 336°
2026-05-07 06:27 12.97729 77.79487 36042 ft 464 kts 336°
2026-05-07 06:27 13.03679 77.76918 36042 ft 464 kts 336°
2026-05-07 06:28 13.09598 77.74367 36043 ft 464 kts 336°
2026-05-07 06:28 13.15557 77.71797 36042 ft 464 kts 336°
2026-05-07 06:29 13.21509 77.69224 36044 ft 464 kts 336°
2026-05-07 06:29 13.27459 77.66640 36042 ft 464 kts 336°
2026-05-07 06:30 13.33409 77.64053 36035 ft 464 kts 336°
2026-05-07 06:30 13.39359 77.61464 36026 ft 464 kts 336°
2026-05-07 06:31 13.45314 77.58881 36015 ft 465 kts 336°
2026-05-07 06:31 13.51264 77.56286 36004 ft 465 kts 336°
2026-05-07 06:32 13.57216 77.53688 35997 ft 465 kts 336°
2026-05-07 06:32 13.63174 77.51101 35995 ft 465 kts 336°
2026-05-07 06:33 13.69131 77.48516 35992 ft 464 kts 336°
2026-05-07 06:33 13.75079 77.45925 35989 ft 464 kts 336°
2026-05-07 06:34 13.81019 77.43332 35982 ft 463 kts 336°
2026-05-07 06:34 13.86950 77.40739 35979 ft 463 kts 336°
2026-05-07 06:35 13.92879 77.38150 35973 ft 462 kts 336°
2026-05-07 06:35 13.98799 77.35563 35971 ft 462 kts 336°
2026-05-07 06:36 14.04722 77.32972 35968 ft 462 kts 336°
2026-05-07 06:36 14.10600 77.30402 35961 ft 462 kts 336°
2026-05-07 06:37 14.16515 77.27812 35966 ft 462 kts 336°
2026-05-07 06:37 14.22431 77.25220 35958 ft 462 kts 336°
2026-05-07 06:38 14.28382 77.22613 35959 ft 462 kts 336°
2026-05-07 06:38 14.34304 77.20027 35960 ft 462 kts 336°
2026-05-07 06:39 14.40184 77.17449 35957 ft 462 kts 336°
2026-05-07 06:39 14.46100 77.14850 35957 ft 462 kts 336°
2026-05-07 06:40 14.52017 77.12261 35955 ft 462 kts 336°
2026-05-07 06:40 14.56967 77.10092 35955 ft 461 kts 336°
2026-05-07 06:41 14.62914 77.07596 35957 ft 461 kts 339°
2026-05-07 06:41 14.68974 77.05395 35952 ft 461 kts 340°
2026-05-07 06:42 14.75053 77.03268 35949 ft 461 kts 340°
2026-05-07 06:42 14.81067 77.01097 35948 ft 461 kts 340°
2026-05-07 06:43 14.87107 76.98869 35947 ft 461 kts 339°
2026-05-07 06:43 14.93148 76.96635 35946 ft 461 kts 339°
2026-05-07 06:44 14.99186 76.94411 35944 ft 461 kts 340°
2026-05-07 06:44 15.05244 76.92181 35943 ft 461 kts 339°
2026-05-07 06:45 15.11281 76.89962 35944 ft 461 kts 339°
2026-05-07 06:45 15.17042 76.87122 35947 ft 458 kts 323°
2026-05-07 06:46 15.21796 76.82773 35943 ft 456 kts 315°
2026-05-07 06:46 15.26372 76.78211 35945 ft 457 kts 315°
2026-05-07 06:47 15.30947 76.73640 35943 ft 457 kts 315°
2026-05-07 06:47 15.35524 76.69074 35943 ft 457 kts 315°
2026-05-07 06:48 15.40109 76.64487 35937 ft 458 kts 315°
2026-05-07 06:48 15.44660 76.59930 35933 ft 458 kts 315°
2026-05-07 06:49 15.49268 76.55319 35929 ft 458 kts 315°
2026-05-07 06:49 15.53845 76.50734 35926 ft 457 kts 315°
2026-05-07 06:50 15.58389 76.46181 35931 ft 457 kts 315°
2026-05-07 06:50 15.62958 76.41600 35930 ft 457 kts 315°
2026-05-07 06:51 15.67519 76.37016 35939 ft 456 kts 315°
2026-05-07 06:51 15.72142 76.32499 35938 ft 456 kts 316°
2026-05-07 06:52 15.76819 76.28040 35947 ft 456 kts 316°
2026-05-07 06:52 15.81484 76.23575 35952 ft 456 kts 316°
2026-05-07 06:53 15.86127 76.19088 35954 ft 456 kts 316°
2026-05-07 06:53 15.90760 76.14592 35956 ft 456 kts 316°
2026-05-07 06:54 15.95400 76.10101 35963 ft 456 kts 316°
2026-05-07 06:54 16.00037 76.05605 35967 ft 456 kts 316°
2026-05-07 06:55 16.04678 76.01111 35974 ft 456 kts 316°
2026-05-07 06:55 16.09313 75.96612 35978 ft 456 kts 316°
2026-05-07 06:56 16.13951 75.92104 35981 ft 455 kts 316°
2026-05-07 06:56 16.18551 75.87640 35989 ft 455 kts 316°
2026-05-07 06:57 16.23178 75.83147 35997 ft 455 kts 315°
2026-05-07 06:57 16.27799 75.78649 35996 ft 455 kts 315°
2026-05-07 06:58 16.32416 75.74162 36001 ft 454 kts 315°
2026-05-07 06:58 16.37033 75.69664 36004 ft 454 kts 315°
2026-05-07 06:59 16.41649 75.65167 36008 ft 454 kts 315°
2026-05-07 06:59 16.46260 75.60667 36009 ft 454 kts 315°
2026-05-07 07:00 16.50876 75.56164 36010 ft 454 kts 315°
2026-05-07 07:00 16.55482 75.51673 36013 ft 454 kts 315°
2026-05-07 07:01 16.60090 75.47166 36014 ft 454 kts 315°
2026-05-07 07:01 16.64642 75.42732 36012 ft 446 kts 315°
2026-05-07 07:02 16.69185 75.38324 36014 ft 444 kts 315°
2026-05-07 07:02 16.73704 75.33946 36005 ft 443 kts 315°
2026-05-07 07:03 16.78219 75.29578 36004 ft 443 kts 315°
2026-05-07 07:03 16.82739 75.25216 36001 ft 442 kts 315°
2026-05-07 07:04 16.87257 75.20862 36000 ft 442 kts 315°
2026-05-07 07:04 16.91749 75.16530 36000 ft 442 kts 315°
2026-05-07 07:05 16.96295 75.12150 35996 ft 442 kts 315°
2026-05-07 07:05 17.00781 75.07828 35989 ft 441 kts 315°
2026-05-07 07:06 17.04371 75.02770 35999 ft 439 kts 289°
2026-05-07 07:06 17.06513 74.96738 35994 ft 444 kts 289°
2026-05-07 07:07 17.08659 74.90682 35992 ft 445 kts 289°
2026-05-07 07:07 17.10808 74.84616 35988 ft 445 kts 289°
2026-05-07 07:08 17.12956 74.78552 35984 ft 445 kts 289°
2026-05-07 07:08 17.14284 74.75631 35970 ft 446 kts 302°
2026-05-07 07:08 17.16137 74.73021 35981 ft 448 kts 307°
2026-05-07 07:09 17.19986 74.67896 35974 ft 448 kts 307°
2026-05-07 07:09 17.23847 74.62767 35971 ft 448 kts 307°
2026-05-07 07:10 17.27691 74.57633 35966 ft 448 kts 307°
2026-05-07 07:10 17.31532 74.52484 35966 ft 448 kts 307°
2026-05-07 07:11 17.35368 74.47352 35953 ft 448 kts 307°
2026-05-07 07:11 17.39209 74.42216 35945 ft 448 kts 307°
2026-05-07 07:12 17.43046 74.37075 35936 ft 447 kts 306°
2026-05-07 07:12 17.46874 74.31940 35940 ft 447 kts 307°
2026-05-07 07:13 17.50704 74.26807 35931 ft 447 kts 307°
2026-05-07 07:13 17.54533 74.21670 35704 ft 447 kts 307°
2026-05-07 07:14 17.56436 74.19106 35463 ft 447 kts 306°
2026-05-07 07:14 17.58344 74.16536 35225 ft 446 kts 307°
2026-05-07 07:14 17.60259 74.13959 34562 ft 450 kts 307°
2026-05-07 07:14 17.62161 74.11402 34015 ft 450 kts 307°
2026-05-07 07:15 17.64110 74.08780 33465 ft 448 kts 307°
2026-05-07 07:15 17.66018 74.06216 32967 ft 445 kts 307°
2026-05-07 07:15 17.67915 74.03667 32467 ft 442 kts 307°
2026-05-07 07:15 17.69776 74.01167 31958 ft 439 kts 307°
2026-05-07 07:16 17.71675 73.98618 31454 ft 436 kts 307°
2026-05-07 07:16 17.73534 73.96121 30946 ft 434 kts 307°
2026-05-07 07:16 17.75384 73.93626 30431 ft 432 kts 307°
2026-05-07 07:16 17.77218 73.91144 29885 ft 430 kts 307°
2026-05-07 07:17 17.79043 73.88670 29324 ft 427 kts 307°
2026-05-07 07:17 17.80831 73.86246 28833 ft 423 kts 308°
2026-05-07 07:17 17.82620 73.83824 28336 ft 419 kts 308°
2026-05-07 07:17 17.84399 73.81418 27846 ft 415 kts 308°
2026-05-07 07:18 17.86157 73.79038 27374 ft 411 kts 308°
2026-05-07 07:18 17.87900 73.76680 26913 ft 407 kts 308°
2026-05-07 07:18 17.89632 73.74340 26460 ft 403 kts 308°
2026-05-07 07:18 17.91340 73.72029 26019 ft 400 kts 308°
2026-05-07 07:19 17.93039 73.69731 25580 ft 396 kts 308°
2026-05-07 07:19 17.94719 73.67455 25139 ft 393 kts 308°
2026-05-07 07:19 17.96391 73.65189 24710 ft 390 kts 308°
2026-05-07 07:19 17.98049 73.62946 24273 ft 388 kts 309°
2026-05-07 07:20 17.99703 73.60712 23841 ft 387 kts 309°
2026-05-07 07:20 18.01351 73.58486 23369 ft 385 kts 309°
2026-05-07 07:20 18.02990 73.56267 22875 ft 383 kts 309°
2026-05-07 07:20 18.04617 73.54063 22412 ft 380 kts 309°
2026-05-07 07:21 18.06233 73.51869 21959 ft 378 kts 308°
2026-05-07 07:21 18.07833 73.49693 21492 ft 375 kts 308°
2026-05-07 07:21 18.09424 73.47530 21032 ft 373 kts 308°
2026-05-07 07:21 18.11002 73.45386 20565 ft 371 kts 308°
2026-05-07 07:22 18.12574 73.43245 20097 ft 369 kts 308°
2026-05-07 07:22 18.14138 73.41114 19674 ft 367 kts 308°
2026-05-07 07:22 18.15825 73.39171 19534 ft 354 kts 320°
2026-05-07 07:22 18.17825 73.37742 19409 ft 343 kts 333°
2026-05-07 07:23 18.19983 73.36737 19096 ft 339 kts 336°
2026-05-07 07:23 18.22152 73.35769 18720 ft 338 kts 336°
2026-05-07 07:23 18.24316 73.34803 18310 ft 338 kts 336°
2026-05-07 07:23 18.26482 73.33835 17890 ft 339 kts 336°
2026-05-07 07:24 18.28648 73.32866 17465 ft 338 kts 336°
2026-05-07 07:24 18.30809 73.31902 17052 ft 337 kts 337°
2026-05-07 07:24 18.32968 73.30940 16621 ft 337 kts 337°
2026-05-07 07:24 18.35125 73.29974 16181 ft 338 kts 336°
2026-05-07 07:25 18.39459 73.28036 15316 ft 339 kts 336°
2026-05-07 07:25 18.40902 73.27392 15029 ft 339 kts 336°
2026-05-07 07:25 18.43076 73.26419 14610 ft 340 kts 336°
2026-05-07 07:26 18.45252 73.25444 14193 ft 341 kts 336°
2026-05-07 07:26 18.47438 73.24466 13778 ft 342 kts 336°
2026-05-07 07:26 18.49628 73.23486 13334 ft 342 kts 336°
2026-05-07 07:26 18.51794 73.22516 12871 ft 333 kts 336°
2026-05-07 07:27 18.53892 73.21573 12420 ft 324 kts 336°
2026-05-07 07:27 18.55940 73.20655 11977 ft 316 kts 336°
2026-05-07 07:27 18.57940 73.19759 11540 ft 309 kts 336°
2026-05-07 07:27 18.59894 73.18885 11105 ft 303 kts 336°
2026-05-07 07:28 18.61821 73.18020 10678 ft 298 kts 336°
2026-05-07 07:28 18.63708 73.17169 10260 ft 293 kts 336°
2026-05-07 07:28 18.65571 73.16337 9836 ft 289 kts 338°
2026-05-07 07:28 18.67516 73.15852 9397 ft 286 kts 356°
2026-05-07 07:29 18.69480 73.15803 9206 ft 281 kts 359°
2026-05-07 07:29 18.71435 73.15757 9073 ft 281 kts 359°
2026-05-07 07:29 18.73382 73.15701 8956 ft 280 kts 359°
2026-05-07 07:29 18.75327 73.15648 8829 ft 280 kts 359°
2026-05-07 07:30 18.77271 73.15596 8750 ft 279 kts 359°
2026-05-07 07:30 18.79180 73.15543 8675 ft 278 kts 359°
2026-05-07 07:30 18.81140 73.15489 8601 ft 278 kts 359°
2026-05-07 07:30 18.83045 73.15437 8530 ft 278 kts 359°
2026-05-07 07:31 18.84996 73.15384 8451 ft 277 kts 359°
2026-05-07 07:31 18.86895 73.15334 8387 ft 276 kts 359°
2026-05-07 07:31 18.88835 73.15285 8339 ft 275 kts 360°
2026-05-07 07:31 18.90679 73.15592 8284 ft 272 kts 26°
2026-05-07 07:32 18.92145 73.16793 8227 ft 267 kts 56°
2026-05-07 07:32 18.92852 73.18600 8177 ft 264 kts 85°
2026-05-07 07:32 18.92955 73.20528 8124 ft 264 kts 89°
2026-05-07 07:32 18.93027 73.22472 8076 ft 265 kts 89°
2026-05-07 07:33 18.93101 73.24412 8029 ft 265 kts 89°
2026-05-07 07:33 18.93177 73.26357 7978 ft 264 kts 89°
2026-05-07 07:33 18.93254 73.28293 7928 ft 264 kts 89°
2026-05-07 07:33 18.93333 73.30233 7886 ft 264 kts 88°
2026-05-07 07:34 18.93412 73.32174 7837 ft 264 kts 88°
2026-05-07 07:34 18.93491 73.34112 7790 ft 264 kts 88°
2026-05-07 07:34 18.93569 73.36023 7741 ft 255 kts 88°
2026-05-07 07:34 18.93744 73.37813 7690 ft 245 kts 73°
2026-05-07 07:35 18.94619 73.39320 7643 ft 243 kts 41°
2026-05-07 07:35 18.96106 73.40125 7600 ft 244 kts 10°
2026-05-07 07:35 18.97801 73.40255 7553 ft 245 kts
2026-05-07 07:35 18.99510 73.40238 7502 ft 245 kts 359°
2026-05-07 07:36 19.01214 73.40198 7451 ft 245 kts 359°
2026-05-07 07:36 19.02917 73.40154 7402 ft 245 kts 359°
2026-05-07 07:36 19.04625 73.40108 7361 ft 245 kts 359°
2026-05-07 07:36 19.06305 73.39871 7311 ft 245 kts 340°
2026-05-07 07:37 19.07782 73.38994 7263 ft 245 kts 319°
2026-05-07 07:37 19.08871 73.37621 7216 ft 245 kts 298°
2026-05-07 07:37 19.09444 73.35934 7164 ft 245 kts 277°
2026-05-07 07:37 19.09473 73.34142 7112 ft 245 kts 266°
2026-05-07 07:38 19.09423 73.32333 6957 ft 248 kts 268°
2026-05-07 07:38 19.09404 73.30510 6655 ft 248 kts 269°
2026-05-07 07:38 19.09394 73.28678 6334 ft 250 kts 270°
2026-05-07 07:38 19.09384 73.26860 6085 ft 249 kts 269°
2026-05-07 07:39 19.09369 73.25044 5821 ft 247 kts 269°
2026-05-07 07:39 19.09349 73.23209 5513 ft 246 kts 270°
2026-05-07 07:39 19.09328 73.21395 5203 ft 247 kts 270°
2026-05-07 07:39 19.09307 73.19597 4882 ft 248 kts 270°
2026-05-07 07:40 19.09285 73.17750 4587 ft 247 kts 270°
2026-05-07 07:40 19.09262 73.15973 4385 ft 243 kts 270°
2026-05-07 07:40 19.09238 73.14177 4191 ft 238 kts 270°
2026-05-07 07:40 19.09216 73.12474 4010 ft 234 kts 271°
2026-05-07 07:41 19.09193 73.10755 3819 ft 233 kts 271°
2026-05-07 07:41 19.09170 73.09063 3620 ft 228 kts 271°
2026-05-07 07:41 19.09146 73.07404 3462 ft 226 kts 271°
2026-05-07 07:41 19.09123 73.05733 3204 ft 227 kts 271°
2026-05-07 07:42 19.09101 73.04090 2925 ft 218 kts 271°
2026-05-07 07:42 19.09080 73.02503 2647 ft 211 kts 271°
2026-05-07 07:42 19.09060 73.00987 2402 ft 200 kts 271°
2026-05-07 07:42 19.09042 72.99571 2156 ft 186 kts 270°
2026-05-07 07:43 19.09025 72.98288 1928 ft 167 kts 271°
2026-05-07 07:43 19.09010 72.97108 1729 ft 155 kts 270°
2026-05-07 07:43 19.08995 72.96020 1547 ft 145 kts 271°
2026-05-07 07:43 19.08981 72.94963 1359 ft 142 kts 269°
2026-05-07 07:44 19.08968 72.93924 1181 ft 140 kts 271°
2026-05-07 07:44 19.08954 72.92892 996 ft 140 kts 269°
2026-05-07 07:44 19.08941 72.91860 853 ft 141 kts 271°
2026-05-07 07:44 19.08926 72.90825 662 ft 140 kts 267°
2026-05-07 07:45 19.08903 72.89796 483 ft 139 kts 270°
2026-05-07 07:45 19.08894 72.88768 283 ft 140 kts 270°
2026-05-07 07:45 19.08878 72.87750 117 ft 139 kts 270°
2026-05-07 07:45 19.08871 72.86756 51 ft 124 kts 269°
2026-05-07 07:46 19.08861 72.86026 47 ft 66 kts 269°
2026-05-07 07:46 19.08863 72.85709 48 ft 36 kts 277°
2026-05-07 07:46 19.08928 72.85538 47 ft 14 kts 298°
2026-05-07 07:46 19.08968 72.85486 48 ft 8 kts 338°
2026-05-07 07:47 19.09021 72.85519 48 ft 10 kts 62°
2026-05-07 07:47 19.09026 72.85575 49 ft 5 kts 85°
2026-05-07 07:47 19.09057 72.85602 49 ft 7 kts 12°
2026-05-07 07:47 19.09102 72.85604 46 ft 5 kts
2026-05-07 07:48 19.09143 72.85604 46 ft 4 kts 360°
2026-05-07 07:48 19.09156 72.85604 48 ft 0 kts 360°
2026-05-07 07:49 19.09157 72.85604 49 ft 1 kts 360°
2026-05-07 07:49 19.09159 72.85604 49 ft 0 kts 360°